FIN461 ENBR-ENGM

Flight info

Callsign FIN461
Flight time 0h 44m
Altitude 25000
Route GOKAB2D GOKAB DCT ULVAN DCT ADOPI ADOPI3L
Aircraft A321/M-SDE3FGHIRWY/LB1

Departure

Time 2026-05-04 10:21
Airport Bergen Airport, Flesland (ENBR)

Arrival

Time 2026-05-04 11:05
Airport Oslo-Gardermoen International Airport (ENGM)
Time Latitude Longitude Altitude Speed Heading
2026-05-04 10:04 60.28968 5.22581 174 ft 0 kts 131°
2026-05-04 10:11 60.28969 5.22580 174 ft 1 kts 131°
2026-05-04 10:12 60.28978 5.22559 174 ft 2 kts 131°
2026-05-04 10:12 60.28988 5.22536 174 ft 2 kts 131°
2026-05-04 10:12 60.28999 5.22513 174 ft 2 kts 131°
2026-05-04 10:12 60.29008 5.22491 174 ft 2 kts 131°
2026-05-04 10:13 60.29020 5.22474 174 ft 2 kts 175°
2026-05-04 10:13 60.29034 5.22481 174 ft 2 kts 220°
2026-05-04 10:13 60.29041 5.22502 174 ft 0 kts 258°
2026-05-04 10:13 60.29042 5.22516 174 ft 1 kts 262°
2026-05-04 10:14 60.29042 5.22518 174 ft 0 kts 262°
2026-05-04 10:16 60.29042 5.22513 174 ft 0 kts 262°
2026-05-04 10:16 60.29041 5.22500 174 ft 1 kts 262°
2026-05-04 10:16 60.29039 5.22479 174 ft 1 kts 262°
2026-05-04 10:16 60.29037 5.22443 174 ft 4 kts 260°
2026-05-04 10:17 60.29016 5.22382 174 ft 6 kts 208°
2026-05-04 10:17 60.28960 5.22386 174 ft 9 kts 171°
2026-05-04 10:19 60.28252 5.22502 174 ft 10 kts 173°
2026-05-04 10:19 60.28177 5.22522 174 ft 10 kts 170°
2026-05-04 10:19 60.28102 5.22541 174 ft 11 kts 188°
2026-05-04 10:19 60.28058 5.22428 174 ft 11 kts 258°
2026-05-04 10:20 60.28061 5.22279 174 ft 11 kts 304°
2026-05-04 10:20 60.28129 5.22224 174 ft 11 kts 351°
2026-05-04 10:20 60.28224 5.22193 174 ft 29 kts 350°
2026-05-04 10:20 60.28695 5.22032 174 ft 104 kts 351°
2026-05-04 10:21 60.29601 5.21734 248 ft 151 kts 351°
2026-05-04 10:21 60.30683 5.21380 707 ft 162 kts 351°
2026-05-04 10:21 60.31790 5.21011 1332 ft 166 kts 350°
2026-05-04 10:21 60.32926 5.20626 1975 ft 168 kts 350°
2026-05-04 10:22 60.35379 5.19797 2589 ft 193 kts 350°
2026-05-04 10:22 60.36748 5.19360 2878 ft 208 kts 355°
2026-05-04 10:22 60.38193 5.19956 3087 ft 227 kts 34°
2026-05-04 10:23 60.39191 5.22535 3404 ft 244 kts 73°
2026-05-04 10:23 60.39224 5.25998 3756 ft 259 kts 103°
2026-05-04 10:25 60.38225 5.52133 8521 ft 281 kts 82°
2026-05-04 10:25 60.38465 5.56034 9193 ft 284 kts 82°
2026-05-04 10:25 60.38706 5.60044 9863 ft 287 kts 82°
2026-05-04 10:25 60.38942 5.64034 10441 ft 293 kts 83°
2026-05-04 10:26 60.39189 5.68278 10744 ft 309 kts 83°
2026-05-04 10:26 60.39443 5.72680 11023 ft 324 kts 83°
2026-05-04 10:26 60.39713 5.77409 11350 ft 338 kts 83°
2026-05-04 10:26 60.39984 5.82196 11908 ft 342 kts 83°
2026-05-04 10:27 60.40253 5.86960 12527 ft 344 kts 83°
2026-05-04 10:27 60.40525 5.91818 13120 ft 347 kts 83°
2026-05-04 10:27 60.40798 5.96673 13688 ft 350 kts 83°
2026-05-04 10:27 60.41074 6.01625 14254 ft 353 kts 83°
2026-05-04 10:28 60.41346 6.06545 14800 ft 356 kts 83°
2026-05-04 10:28 60.41617 6.11515 15336 ft 359 kts 83°
2026-05-04 10:28 60.41895 6.16628 15872 ft 362 kts 83°
2026-05-04 10:28 60.42165 6.21667 16385 ft 365 kts 83°
2026-05-04 10:29 60.42435 6.26752 16888 ft 367 kts 83°
2026-05-04 10:29 60.42711 6.31961 17389 ft 370 kts 83°
2026-05-04 10:29 60.42985 6.37171 17874 ft 373 kts 83°
2026-05-04 10:29 60.43189 6.42432 18348 ft 375 kts 87°
2026-05-04 10:30 60.43227 6.47715 18809 ft 378 kts 91°
2026-05-04 10:30 60.43117 6.52998 19257 ft 381 kts 92°
2026-05-04 10:30 60.42968 6.58427 19706 ft 383 kts 92°
2026-05-04 10:30 60.42814 6.63814 20143 ft 386 kts 92°
2026-05-04 10:31 60.42658 6.69256 20575 ft 388 kts 94°
2026-05-04 10:31 60.42502 6.74717 20999 ft 391 kts 94°
2026-05-04 10:32 60.41518 7.07717 23914 ft 391 kts 94°
2026-05-04 10:33 60.41347 7.13257 24304 ft 393 kts 93°
2026-05-04 10:33 60.41175 7.18749 24692 ft 395 kts 93°
2026-05-04 10:33 60.41006 7.24074 24946 ft 398 kts 93°
2026-05-04 10:33 60.40827 7.29628 24973 ft 398 kts 94°
2026-05-04 10:34 60.40641 7.35303 24980 ft 399 kts 94°
2026-05-04 10:34 60.40509 7.39285 24982 ft 399 kts 94°
2026-05-04 10:34 60.40322 7.44878 24984 ft 399 kts 94°
2026-05-04 10:34 60.40132 7.50462 24985 ft 399 kts 94°
2026-05-04 10:35 60.39939 7.56070 24985 ft 399 kts 94°
2026-05-04 10:35 60.39745 7.61646 24985 ft 399 kts 94°
2026-05-04 10:35 60.39545 7.67293 24986 ft 399 kts 94°
2026-05-04 10:35 60.39346 7.72892 24985 ft 399 kts 94°
2026-05-04 10:36 60.39145 7.78458 24985 ft 399 kts 94°
2026-05-04 10:36 60.38937 7.84156 24985 ft 399 kts 94°
2026-05-04 10:36 60.38732 7.89703 24985 ft 399 kts 94°
2026-05-04 10:36 60.38521 7.95344 24985 ft 399 kts 94°
2026-05-04 10:37 60.38310 8.00936 24985 ft 399 kts 94°
2026-05-04 10:37 60.38094 8.06570 24985 ft 399 kts 94°
2026-05-04 10:37 60.37880 8.12114 24985 ft 399 kts 94°
2026-05-04 10:37 60.37660 8.17732 24985 ft 399 kts 94°
2026-05-04 10:39 60.36297 8.51301 24036 ft 402 kts 94°
2026-05-04 10:39 60.36058 8.56970 23422 ft 402 kts 94°
2026-05-04 10:39 60.35819 8.62580 22819 ft 401 kts 94°
2026-05-04 10:40 60.35579 8.68175 22219 ft 401 kts 95°
2026-05-04 10:40 60.35336 8.73771 21609 ft 400 kts 95°
2026-05-04 10:40 60.35091 8.79373 21017 ft 399 kts 95°
2026-05-04 10:40 60.34845 8.84949 20574 ft 394 kts 95°
2026-05-04 10:41 60.34600 8.90429 20125 ft 390 kts 95°
2026-05-04 10:41 60.34357 8.95811 19681 ft 386 kts 95°
2026-05-04 10:41 60.34111 9.01222 19230 ft 382 kts 95°
2026-05-04 10:41 60.33865 9.06565 18784 ft 379 kts 95°
2026-05-04 10:42 60.33623 9.11793 18344 ft 376 kts 95°
2026-05-04 10:42 60.33375 9.17071 17898 ft 373 kts 95°
2026-05-04 10:42 60.33132 9.22210 17487 ft 369 kts 95°
2026-05-04 10:42 60.32888 9.27313 17401 ft 354 kts 95°
2026-05-04 10:43 60.32658 9.32119 17327 ft 341 kts 95°
2026-05-04 10:44 60.29803 9.62449 15248 ft 309 kts 102°
2026-05-04 10:45 60.29343 9.66732 14894 ft 307 kts 102°
2026-05-04 10:45 60.28896 9.70890 14551 ft 305 kts 102°
2026-05-04 10:45 60.28443 9.75093 14203 ft 303 kts 102°
2026-05-04 10:45 60.27993 9.79259 13859 ft 301 kts 102°
2026-05-04 10:46 60.27531 9.83340 13515 ft 299 kts 106°
2026-05-04 10:46 60.26781 9.87225 13172 ft 296 kts 117°
2026-05-04 10:46 60.25697 9.90733 12837 ft 294 kts 125°
2026-05-04 10:46 60.24492 9.94072 12502 ft 292 kts 127°
2026-05-04 10:47 60.23298 9.97308 12173 ft 289 kts 127°
2026-05-04 10:47 60.22104 10.00545 11844 ft 287 kts 127°
2026-05-04 10:47 60.20915 10.03782 11517 ft 285 kts 126°
2026-05-04 10:47 60.19755 10.06950 11195 ft 283 kts 126°
2026-05-04 10:49 60.10957 10.23906 9985 ft 260 kts 195°
2026-05-04 10:49 60.09235 10.22699 9995 ft 260 kts 201°
2026-05-04 10:50 60.07556 10.21412 9992 ft 260 kts 200°
2026-05-04 10:51 59.95172 10.17978 9990 ft 260 kts 179°
2026-05-04 10:52 59.93344 10.18025 9990 ft 260 kts 179°
2026-05-04 10:52 59.91546 10.18389 9989 ft 260 kts 167°
2026-05-04 10:52 59.89813 10.19415 9992 ft 260 kts 160°
2026-05-04 10:54 59.78477 10.30232 9991 ft 260 kts 141°
2026-05-04 10:54 59.77153 10.32646 9973 ft 260 kts 124°
2026-05-04 10:56 59.83084 10.52017 8053 ft 252 kts 44°
2026-05-04 10:56 59.84334 10.54462 7761 ft 251 kts 44°
2026-05-04 10:56 59.85570 10.56888 7473 ft 250 kts 44°
2026-05-04 10:57 59.86816 10.59344 7182 ft 249 kts 44°
2026-05-04 10:57 59.88038 10.61757 6896 ft 248 kts 44°
2026-05-04 10:57 59.89264 10.64181 6610 ft 247 kts 44°
2026-05-04 10:57 59.90325 10.66284 6361 ft 246 kts 45°
2026-05-04 10:58 59.91537 10.68699 6077 ft 245 kts 45°
2026-05-04 10:58 59.92733 10.71082 5797 ft 244 kts 45°
2026-05-04 10:58 59.93933 10.73472 5516 ft 243 kts 45°
2026-05-04 10:58 59.95123 10.75841 5238 ft 242 kts 45°
2026-05-04 10:59 59.96317 10.78216 5025 ft 240 kts 45°
2026-05-04 10:59 59.97374 10.80794 4989 ft 240 kts 61°
2026-05-04 10:59 59.98037 10.83876 4694 ft 241 kts 71°
2026-05-04 10:59 59.98562 10.87040 4416 ft 239 kts 72°
2026-05-04 11:00 59.99068 10.90176 4157 ft 236 kts 72°
2026-05-04 11:01 60.06847 11.00676 3005 ft 179 kts 14°
2026-05-04 11:02 60.07991 11.01290 2762 ft 163 kts 15°
2026-05-04 11:02 60.09045 11.01898 2530 ft 151 kts 16°
2026-05-04 11:05 60.19910 11.08371 675 ft 0 kts 125°
2026-05-04 11:06 60.19910 11.08372 675 ft 0 kts 125°
2026-05-04 11:06 60.19906 11.08384 675 ft 2 kts 122°
2026-05-04 11:06 60.19893 11.08442 675 ft 6 kts 109°
2026-05-04 11:08 60.19688 11.09845 679 ft 8 kts 105°
2026-05-04 11:12 60.19671 11.09962 679 ft 0 kts 107°